Location: South Tamworth Observatory
(43.8246°N, 71.3026°W)
Time: 02:52:22
(UTC-04:00)

Amateur Radio Satellites - All Passes

Search period start: 29 July 2015 02:22
Search period end: 30 July 2015 02:22
Location: South Tamworth Observatory, 43.8246°N, 71.3026°W

Satellite Date Start Highest point End Downlink Frequencies (MHz)
Time Altitude Azimuth
Oscar 19 29 Jul 02:25:17 02:30:30 86° 104° (ESE) 02:35:42 437.125/150
BEESAT 3 29 Jul 02:43:41 02:45:31 12° 326° (NW) 02:47:17 437.485
O/OREOS (USA 219) 29 Jul 02:54:12 02:58:37 60° 296° (WNW) 03:03:06 437.305
Gurwin Techsat 1B 29 Jul 02:54:43 02:59:54 50° 99° (E) 03:05:04 435.225
AIST 2 29 Jul 03:03:45 03:07:30 29° 315° (NW) 03:11:14 435.215
PHONESAT 2.4 29 Jul 03:05:54 03:07:50 14° 208° (SSW) 03:09:43 2401.200-2431.200
STARS 29 Jul 03:13:00 03:17:21 84° 76° (ENE) 03:21:45 437.465
Cosmos 2504 29 Jul 03:15:31 03:22:30 72° 94° (E) 03:30:02 435.465 / 435.565
BEESAT 29 Jul 03:20:43 03:22:13 11° 274° (W) 03:23:24 436.000
ISS 29 Jul 03:20:48 03:23:45 30° 18° (NNE) 03:26:43 145.825
AO-7 29 Jul 03:24:47 03:30:23 20° 88° (E) 03:36:21 29.400- 29.500
JAS-2 29 Jul 03:28:12 03:35:36 46° 96° (E) 03:43:04 435.910
KKS-1 29 Jul 03:31:00 03:35:09 38° 262° (W) 03:39:18 437.445
ITAMSAT 1 29 Jul 03:38:15 03:43:28 76° 285° (WNW) 03:48:37 435.822/435.867
MOZHAYETS 4 29 Jul 03:54:55 03:59:20 45° 71° (ENE) 04:03:47
RS-15 29 Jul 03:57:15 04:06:39 28° 14° (NNE) 04:16:31 29.354- 29.394
Oscar 19 29 Jul 04:06:30 04:09:13 14° 301° (WNW) 04:11:45 437.125/150
HORYU 2 29 Jul 04:26:06 04:30:28 49° 99° (E) 04:34:51 437.375
CUSAT 1 29 Jul 04:29:40 04:32:28 31° 98° (E) 04:34:56 437.405
Gurwin Techsat 1B 29 Jul 04:35:22 04:39:36 24° 296° (WNW) 04:43:41 435.225
GONETS M04 29 Jul 04:53:46 04:58:33 17° 77° (ENE) 05:03:49
ISS 29 Jul 04:57:08 05:00:21 54° 217° (SW) 05:03:32 145.825
Cosmos 2504 29 Jul 05:10:08 05:15:41 23° 298° (WNW) 05:21:16 435.465 / 435.565
JAS-2 29 Jul 05:13:21 05:20:34 44° 294° (WNW) 05:27:48 435.910
AO-7 29 Jul 05:15:58 05:24:23 88° 289° (WNW) 05:32:43 29.400- 29.500
ITAMSAT 1 29 Jul 05:20:25 05:22:10 11° 303° (WNW) 05:23:40 435.822/435.867
DANDE 29 Jul 05:25:49 05:29:21 61° 280° (W) 05:32:13 436.750
MOZHAYETS 4 29 Jul 05:33:22 05:36:48 20° 269° (W) 05:40:09
CUBESAT XI-V 29 Jul 05:38:57 05:43:26 47° 72° (ENE) 05:47:57 437.345
HORYU 2 29 Jul 06:03:35 06:06:47 19° 296° (WNW) 06:09:52 437.375
RS-15 29 Jul 06:10:49 06:22:17 58° 45° (NE) 06:34:16 29.354- 29.394
CUTE-I 29 Jul 06:19:14 06:23:38 27° 93° (E) 06:28:07 437.470
STRAND 1 29 Jul 06:20:44 06:25:34 43° 69° (ENE) 06:30:27 437.568
PRISM 29 Jul 06:40:11 06:44:16 52° 72° (ENE) 06:48:21 437.425
GONETS M04 29 Jul 06:45:29 06:54:11 83° 97° (E) 07:02:56
Cubesat XI-IV 29 Jul 07:01:36 07:06:55 64° 101° (E) 07:12:12 437.490
Cosmos 2499 29 Jul 07:02:41 07:08:11 24° 82° (E) 07:14:14 435.465 / 435.565
AO-7 29 Jul 07:10:00 07:16:13 23° 309° (NW) 07:22:10 29.400- 29.500
CUBESAT XI-V 29 Jul 07:17:44 07:21:10 19° 269° (W) 07:24:27 437.345
BRITE-PL 29 Jul 07:36:04 07:38:57 18° 92° (E) 07:42:05 437.365/2234.400
BEESAT 3 29 Jul 07:43:13 07:45:36 15° 37° (NE) 07:48:05 437.485
M-CUBED/EXP-1 PRIME 29 Jul 07:48:02 07:50:14 15° 56° (NE) 07:52:41 437.505
CUTE-I 29 Jul 07:58:53 08:03:54 42° 291° (WNW) 08:08:52 437.470
STRAND 1 29 Jul 08:00:45 08:04:59 25° 267° (W) 08:09:07 437.568
GOMX 1 29 Jul 08:04:17 08:07:40 22° 93° (E) 08:11:19 467.674
DOVE 4 29 Jul 08:10:12 08:12:55 16° 90° (E) 08:15:53 437.250
PRISM 29 Jul 08:17:37 08:20:03 14° 270° (W) 08:22:18 437.425
AUBIESAT-1 29 Jul 08:19:30 08:22:48 25° 61° (ENE) 08:26:23 437.475
RS-15 29 Jul 08:23:36 08:34:47 50° 248° (WSW) 08:46:09 29.354- 29.394
CUTE 1.7 + AOD 2 29 Jul 08:29:06 08:32:04 18° 91° (E) 08:35:09 437.475
SEEDS 29 Jul 08:32:08 08:34:43 16° 90° (E) 08:37:27 437.485
BEESAT 2 29 Jul 08:35:21 08:39:00 30° 46° (NE) 08:42:38 435.950
CANX-2 29 Jul 08:36:32 08:40:03 24° 93° (E) 08:43:37 2200.000
HO-68 29 Jul 08:39:09 08:45:28 33° 95° (E) 08:51:54 435.675
Cubesat XI-IV 29 Jul 08:42:46 08:46:35 20° 299° (WNW) 08:50:12 437.490
CINEMA 3 29 Jul 08:44:42 08:47:38 17° 90° (E) 08:50:48 145.822/145.860
GONETS M04 29 Jul 08:45:36 08:52:18 23° 300° (WNW) 08:58:43
PCSat 29 Jul 08:46:07 08:49:02 15° 105° (ESE) 08:52:14 145.827
Cosmos 2499 29 Jul 08:53:20 09:00:37 66° 283° (WNW) 09:08:31 435.465 / 435.565
AAUSAT CUBESAT 2 29 Jul 09:06:39 09:10:07 25° 93° (E) 09:13:38 437.432
UNISAT 6 29 Jul 09:09:56 09:12:11 14° 62° (ENE) 09:14:38 437.425
BRITE-PL 29 Jul 09:13:40 09:17:44 44° 287° (WNW) 09:22:01 437.365/2234.400
BEESAT 3 29 Jul 09:20:02 09:24:07 80° 237° (WSW) 09:28:06 437.485
M-CUBED/EXP-1 PRIME 29 Jul 09:20:34 09:24:28 63° 254° (WSW) 09:28:45 437.505
SO-50 29 Jul 09:26:08 09:29:37 21° 112° (ESE) 09:33:18 436.795
UWE-3 29 Jul 09:29:59 09:33:05 18° 91° (E) 09:36:23 435.000/436.395/437.385
FUNcube-1 29 Jul 09:37:22 09:40:07 16° 90° (E) 09:43:03 145.935
CUBEBUG 2 29 Jul 09:37:45 09:41:40 28° 94° (E) 09:45:42 437.445
GOMX 1 29 Jul 09:41:51 09:45:58 38° 288° (WNW) 09:50:15 467.674
POLYITAN 1 29 Jul 09:45:03 09:46:52 13° 63° (ENE) 09:48:51 437.675
AIST 2 29 Jul 09:45:15 09:49:11 36° 48° (NE) 09:53:03 435.215
DOVE 4 29 Jul 09:46:37 09:51:01 55° 286° (WNW) 09:55:40 437.250
TIGRISAT 29 Jul 09:52:45 09:56:40 35° 70° (ENE) 10:00:43 435.000
ANTELSAT 29 Jul 09:52:59 09:56:57 37° 70° (ENE) 10:01:04 437.575/2403.000
AUBIESAT-1 29 Jul 09:53:47 09:57:23 32° 260° (W) 10:01:13 437.475
Oscar 11 29 Jul 09:55:18 09:59:23 38° 97° (E) 10:03:28 145.826/435.025
COMPASS 1 29 Jul 09:57:09 10:01:24 77° 284° (WNW) 10:05:37 437.405
POPSAT HIP 1 29 Jul 10:02:19 10:05:12 19° 66° (ENE) 10:08:13 437.405
CUTE 1.7 + AOD 2 29 Jul 10:04:07 10:08:12 42° 288° (WNW) 10:12:15 437.475
SEEDS 29 Jul 10:06:42 10:10:50 48° 287° (WNW) 10:14:55 437.485
QB50P2 29 Jul 10:08:41 10:11:56 22° 67° (ENE) 10:15:16 145.880/145.840
CANX-2 29 Jul 10:12:09 10:16:01 32° 290° (WNW) 10:19:48 2200.000
BEESAT 2 29 Jul 10:13:26 10:17:01 29° 244° (WSW) 10:20:29 435.950
YUBILEINY 29 Jul 10:17:39 10:23:58 22° 59° (ENE) 10:30:36 435.215
CINEMA 3 29 Jul 10:20:40 10:25:10 54° 287° (WNW) 10:29:50 145.822/145.860
DX 1 29 Jul 10:20:46 10:22:33 13° 88° (E) 10:24:34 434.975-435.025
BUGSAT 1 29 Jul 10:24:18 10:27:10 19° 66° (ENE) 10:30:09 437.445
PCSat 29 Jul 10:26:27 10:31:52 79° 301° (WNW) 10:37:20 145.827
HO-68 29 Jul 10:26:34 10:33:29 51° 294° (WNW) 10:40:20 435.675
HUMSAT D 29 Jul 10:28:11 10:31:36 23° 93° (E) 10:35:05 437.325/437.525
DUCHIFAT 1 29 Jul 10:36:22 10:40:15 40° 71° (ENE) 10:44:12 145.980
QB50P1 29 Jul 10:36:58 10:40:55 42° 71° (ENE) 10:44:55 145.935-145.965
NANOSAT C BR1 29 Jul 10:39:33 10:43:32 44° 72° (ENE) 10:47:33 145.865
AAUSAT CUBESAT 2 29 Jul 10:42:01 10:45:44 30° 290° (WNW) 10:49:22 437.432
UNISAT 6 29 Jul 10:44:12 10:48:28 63° 259° (W) 10:52:52 437.425
ZACube-1 29 Jul 10:49:01 10:53:33 90° 284° (WNW) 10:58:08 437.345
DELFI C3 29 Jul 10:51:07 10:55:12 74° 286° (WNW) 10:59:14 145.870
Cosmos 2499 29 Jul 10:52:21 10:55:54 13° 308° (NW) 10:59:04 435.465 / 435.565
Cosmos 2491 29 Jul 10:55:56 10:59:54 15° 76° (ENE) 11:04:29 435.465 / 435.565
SO-50 29 Jul 11:05:06 11:09:48 55° 310° (NW) 11:14:39 436.795
UWE-3 29 Jul 11:05:29 11:09:53 48° 288° (WNW) 11:14:20 435.000/436.395/437.385
50 SAT 29 Jul 11:06:46 11:10:09 27° 95° (E) 11:13:34 437.505
FUNcube-1 29 Jul 11:12:23 11:16:47 53° 287° (WNW) 11:21:13 145.935
CUBEBUG 2 29 Jul 11:14:16 11:18:22 32° 290° (WNW) 11:22:30 437.445
AISAT 29 Jul 11:17:03 11:20:58 31° 96° (E) 11:24:54 437.250
POLYITAN 1 29 Jul 11:18:07 11:22:17 66° 259° (WSW) 11:26:29 437.675
O/OREOS (USA 219) 29 Jul 11:23:39 11:27:53 36° 59° (ENE) 11:32:08 437.305
AIST 2 29 Jul 11:24:08 11:27:35 25° 246° (WSW) 11:30:55 435.215
AIST 1 29 Jul 11:27:30 11:29:36 14° 86° (E) 11:31:55
TIGRISAT 29 Jul 11:30:08 11:33:33 22° 268° (W) 11:36:57 435.000
ANTELSAT 29 Jul 11:30:32 11:33:54 21° 268° (W) 11:37:15 437.575/2403.000
Oscar 11 29 Jul 11:31:58 11:35:21 22° 294° (WNW) 11:38:38 145.826/435.025
UKube-1 29 Jul 11:32:00 11:36:19 67° 102° (ESE) 11:40:36 .
POPSAT HIP 1 29 Jul 11:36:49 11:40:49 41° 262° (W) 11:44:49 437.405
CUBEBUG 1 29 Jul 11:41:39 11:45:30 31° 96° (E) 11:49:23 437.445
QB50P2 29 Jul 11:43:49 11:47:40 34° 263° (W) 11:51:30 145.880/145.840
DX 1 29 Jul 11:55:00 11:59:19 63° 286° (WNW) 12:03:36 434.975-435.025
ESTCUBE 1 29 Jul 11:55:24 11:59:50 54° 100° (E) 12:04:14 437.505/2401.250
VELOX 1 29 Jul 11:56:49 12:01:14 79° 103° (ESE) 12:05:39 145.980
BUGSAT 1 29 Jul 11:58:39 12:02:26 36° 262° (W) 12:06:12 437.445
HUMSAT D 29 Jul 12:03:29 12:07:25 34° 290° (WNW) 12:11:18 437.325/437.525
Oscar 19 29 Jul 12:06:11 12:09:45 20° 62° (ENE) 12:13:27 437.125/150
PCSat 29 Jul 12:12:42 12:16:15 17° 324° (NW) 12:19:39 145.827
DUCHIFAT 1 29 Jul 12:13:17 12:16:17 18° 269° (W) 12:19:09 145.980
YUBILEINY 29 Jul 12:13:19 12:22:11 88° 263° (W) 12:31:02 435.215
QB50P1 29 Jul 12:14:08 12:17:01 17° 269° (W) 12:19:48 145.935-145.965
NANOSAT C BR1 29 Jul 12:16:51 12:19:38 17° 269° (W) 12:22:16 145.865
HO-68 29 Jul 12:17:38 12:19:44 11° 313° (NW) 12:21:27 435.675
ZACube-1 29 Jul 12:27:58 12:29:17 11° 299° (WNW) 12:30:24 437.345
SPROUT 29 Jul 12:30:14 12:34:06 32° 96° (E) 12:37:59 437.525
Gurwin Techsat 1B 29 Jul 12:40:40 12:43:09 14° 59° (ENE) 12:45:51 435.225
50 SAT 29 Jul 12:41:20 12:44:40 25° 291° (WNW) 12:47:55 437.505
Cosmos 2491 29 Jul 12:46:41 12:55:25 75° 95° (E) 13:04:10 435.465 / 435.565
SO-50 29 Jul 12:49:03 12:51:30 13° 332° (NNW) 12:53:50 436.795
AISAT 29 Jul 12:53:44 12:57:28 27° 292° (WNW) 13:01:07 437.250
TISAT 1 29 Jul 12:54:54 12:58:47 36° 97° (E) 13:02:42 437.305
Cosmos 2504 29 Jul 12:59:36 13:06:21 28° 65° (ENE) 13:13:32 435.465 / 435.565
AIST 1 29 Jul 13:02:33 13:06:50 54° 282° (WNW) 13:11:06
O/OREOS (USA 219) 29 Jul 13:03:23 13:07:09 25° 256° (WSW) 13:10:52 437.305
UKube-1 29 Jul 13:09:46 13:11:58 13° 298° (WNW) 13:13:59 .
CUBEBUG 1 29 Jul 13:18:11 13:21:45 25° 293° (WNW) 13:25:16 437.445
ITAMSAT 1 29 Jul 13:19:21 13:23:34 26° 65° (ENE) 13:27:54 435.822/435.867
ESTCUBE 1 29 Jul 13:33:21 13:36:19 17° 296° (WNW) 13:39:08 437.505/2401.250
VELOX 1 29 Jul 13:35:29 13:37:13 12° 299° (WNW) 13:38:46 145.980
BEESAT 29 Jul 13:38:40 13:42:01 19° 91° (E) 13:45:31 436.000
JAS-2 29 Jul 13:43:30 13:47:57 22° 57° (ENE) 13:52:59 435.910
Oscar 19 29 Jul 13:43:41 13:48:43 58° 260° (W) 13:53:47 437.125/150
SWISSCUBE 29 Jul 13:58:06 14:02:22 32° 96° (E) 14:06:39 437.505
SPROUT 29 Jul 14:06:32 14:10:04 24° 292° (WNW) 14:13:30 437.525
YUBILEINY 29 Jul 14:12:08 14:17:54 19° 282° (WNW) 14:23:12 435.215
Gurwin Techsat 1B 29 Jul 14:17:06 14:22:26 88° 81° (E) 14:27:48 435.225
ITUPSAT 1 29 Jul 14:17:18 14:21:53 45° 98° (E) 14:26:28 437.325
AO-7 29 Jul 14:24:56 14:32:08 35° 58° (ENE) 14:39:30 29.400- 29.500
TISAT 1 29 Jul 14:31:08 14:34:22 21° 293° (WNW) 14:37:31 437.305
Cosmos 2491 29 Jul 14:46:08 14:53:19 26° 298° (WNW) 15:00:13 435.465 / 435.565
Cosmos 2504 29 Jul 14:51:04 14:59:20 71° 266° (W) 15:07:53 435.465 / 435.565
ITAMSAT 1 29 Jul 14:57:54 15:02:53 44° 262° (W) 15:07:52 435.822/435.867
CUSAT 1 29 Jul 15:01:07 15:04:31 31° 77° (ENE) 15:08:53 437.405
STARS 29 Jul 15:02:49 15:05:03 14° 89° (E) 15:07:29 437.465
BEESAT 29 Jul 15:15:33 15:20:11 49° 289° (WNW) 15:24:45 436.000
KKS-1 29 Jul 15:20:29 15:24:34 35° 97° (E) 15:28:40 437.445
HORYU 2 29 Jul 15:25:28 15:29:46 53° 72° (ENE) 15:34:09 437.375
JAS-2 29 Jul 15:26:20 15:32:16 73° 258° (WSW) 15:39:05 435.910
SWISSCUBE 29 Jul 15:36:00 15:40:10 30° 293° (WNW) 15:44:15 437.505
ITUPSAT 1 29 Jul 15:55:48 15:59:32 22° 295° (WNW) 16:03:08 437.325
Gurwin Techsat 1B 29 Jul 16:01:06 16:03:16 12° 274° (W) 16:05:07 435.225
DANDE 29 Jul 16:01:18 16:04:42 89° 71° (ENE) 16:09:12 436.750
AO-7 29 Jul 16:16:18 16:24:35 61° 257° (WSW) 16:32:52 29.400- 29.500
STARS 29 Jul 16:37:35 16:41:56 59° 287° (WNW) 16:46:16 437.465
CUSAT 1 29 Jul 16:43:57 16:47:01 21° 264° (W) 16:50:36 437.405
Cosmos 2504 29 Jul 16:46:11 16:50:19 14° 283° (WNW) 16:53:56 435.465 / 435.565
Cubesat XI-IV 29 Jul 16:47:23 16:50:48 18° 61° (ENE) 16:54:24 437.490
Cosmos 2499 29 Jul 16:52:23 16:54:21 11° 49° (NE) 16:57:00 435.465 / 435.565
GONETS M04 29 Jul 16:54:12 17:02:24 45° 71° (ENE) 17:10:41
KKS-1 29 Jul 16:57:25 17:01:03 24° 293° (WNW) 17:04:37 437.445
HORYU 2 29 Jul 17:04:01 17:06:48 16° 270° (W) 17:09:26 437.375
JAS-2 29 Jul 17:17:22 17:19:02 11° 282° (WNW) 17:20:15 435.910
MOZHAYETS 4 29 Jul 17:25:29 17:30:10 90° 28° (NNE) 17:34:47
PCSat 29 Jul 17:30:24 17:34:29 22° 41° (NE) 17:38:40 145.827
CUBESAT XI-V 29 Jul 17:37:20 17:37:49 10° 85° (E) 17:38:36 437.345
CUTE-I 29 Jul 17:42:09 17:47:18 50° 70° (ENE) 17:52:29 437.470
SO-50 29 Jul 17:55:09 17:59:36 32° 44° (NE) 18:04:01 436.795
AO-7 29 Jul 18:17:18 18:19:24 11° 279° (W) 18:20:44 29.400- 29.500
Cubesat XI-IV 29 Jul 18:25:02 18:30:24 71° 258° (WSW) 18:35:47 437.490
STRAND 1 29 Jul 18:31:47 18:33:49 13° 87° (E) 18:36:08 437.568
Cosmos 2499 29 Jul 18:41:41 18:50:05 52° 74° (ENE) 18:58:43 435.465 / 435.565
BRITE-PL 29 Jul 18:48:36 18:52:06 24° 69° (ENE) 18:55:34 437.365/2234.400
GONETS M04 29 Jul 18:51:12 18:59:17 43° 272° (W) 19:07:15
MOZHAYETS 4 29 Jul 19:05:10 19:06:44 11° 300° (WNW) 19:08:04
HO-68 29 Jul 19:09:40 19:15:35 30° 60° (ENE) 19:21:40 435.675
CUBESAT XI-V 29 Jul 19:11:21 19:16:00 83° 283° (WNW) 19:20:35 437.345
PCSat 29 Jul 19:13:06 19:18:33 75° 241° (WSW) 19:23:56 145.827
GOMX 1 29 Jul 19:14:25 19:17:53 25° 69° (ENE) 19:21:21 467.674
DOVE 4 29 Jul 19:18:01 19:20:40 17° 66° (ENE) 19:23:26 437.250
CUTE-I 29 Jul 19:23:26 19:27:42 23° 268° (W) 19:31:50 437.470
CUTE 1.7 + AOD 2 29 Jul 19:23:46 19:26:27 17° 65° (ENE) 19:29:16 437.475
SEEDS 29 Jul 19:26:08 19:28:23 15° 64° (ENE) 19:30:48 437.485
CANX-2 29 Jul 19:31:03 19:34:17 22° 67° (ENE) 19:37:38 2200.000
SO-50 29 Jul 19:35:36 19:40:17 42° 243° (WSW) 19:44:49 436.795
CINEMA 3 29 Jul 19:48:46 19:51:18 16° 64° (ENE) 19:53:59 145.822/145.860
PRISM 29 Jul 19:56:15 20:00:24 71° 103° (ESE) 20:04:28 437.425
AAUSAT CUBESAT 2 29 Jul 19:58:58 20:02:05 21° 67° (ENE) 20:05:20 437.432
STRAND 1 29 Jul 20:08:38 20:13:46 81° 284° (WNW) 20:18:52 437.568
VERMONT LUNAR 29 Jul 20:22:32 20:25:21 30° 164° (SSE) 20:28:12 437.305
BRITE-PL 29 Jul 20:26:33 20:30:36 32° 264° (W) 20:34:25 437.365/2234.400
UWE-3 29 Jul 20:29:15 20:31:52 17° 64° (ENE) 20:34:40 435.000/436.395/437.385
Cosmos 2499 29 Jul 20:35:13 20:43:05 39° 273° (W) 20:50:57 435.465 / 435.565
FUNcube-1 29 Jul 20:35:18 20:37:33 15° 64° (ENE) 20:40:01 145.935
CUBEBUG 2 29 Jul 20:37:52 20:41:16 25° 68° (ENE) 20:44:47 437.445
RS-15 29 Jul 20:39:08 20:47:16 26° 104° (ESE) 20:56:02 29.354- 29.394
COMPASS 1 29 Jul 20:49:11 20:53:24 85° 77° (ENE) 20:57:40 437.405
Oscar 11 29 Jul 20:51:20 20:55:15 35° 70° (ENE) 20:59:15 145.826/435.025
CUBESAT XI-V 29 Jul 20:51:59 20:52:44 10° 301° (WNW) 20:53:14 437.345
GOMX 1 29 Jul 20:52:15 20:56:00 28° 265° (W) 20:59:37 467.674
DOVE 4 29 Jul 20:54:10 20:58:11 43° 262° (W) 21:02:09 437.250
HO-68 29 Jul 20:55:56 21:02:58 59° 258° (WSW) 21:10:02 435.675
CUTE 1.7 + AOD 2 29 Jul 20:57:52 21:02:00 49° 261° (W) 21:06:12 437.475
SEEDS 29 Jul 20:59:33 21:03:44 58° 260° (W) 21:07:59 437.485
CANX-2 29 Jul 21:06:03 21:10:01 36° 263° (W) 21:14:00 2200.000
DX 1 29 Jul 21:17:51 21:20:09 15° 63° (ENE) 21:22:37 434.975-435.025
HUMSAT D 29 Jul 21:21:44 21:24:39 19° 66° (ENE) 21:27:43 437.325/437.525
CINEMA 3 29 Jul 21:24:10 21:28:10 47° 261° (W) 21:32:14 145.822/145.860
PHONESAT 2.4 29 Jul 21:27:49 21:30:32 21° 157° (SSE) 21:33:16 2401.200-2431.200
AUBIESAT-1 29 Jul 21:33:02 21:36:13 18° 95° (E) 21:39:31 437.475
AAUSAT CUBESAT 2 29 Jul 21:33:36 21:37:30 36° 263° (W) 21:41:24 437.432
PRISM 29 Jul 21:33:42 21:35:18 12° 298° (WNW) 21:36:42 437.425
ISS 29 Jul 21:37:48 21:40:18 21° 136° (SE) 21:42:51 145.825
DELFI C3 29 Jul 21:39:05 21:43:08 79° 76° (ENE) 21:47:13 145.870
ZACube-1 29 Jul 21:46:15 21:50:25 83° 73° (ENE) 21:54:43 437.345
STRAND 1 29 Jul 21:50:16 21:52:14 12° 302° (WNW) 21:53:56 437.568
50 SAT 29 Jul 21:52:25 21:55:07 19° 67° (ENE) 21:57:57 437.505
VERMONT LUNAR 29 Jul 21:58:45 22:01:48 45° 181° (S) 22:04:52 437.305
UWE-3 29 Jul 22:04:02 22:08:04 47° 261° (W) 22:12:12 435.000/436.395/437.385
FUNcube-1 29 Jul 22:09:22 22:13:27 56° 260° (W) 22:17:40 145.935
CUBEBUG 2 29 Jul 22:14:12 22:17:53 29° 265° (W) 22:21:36 437.445
AISAT 29 Jul 22:16:04 22:20:00 33° 69° (ENE) 22:24:00 437.250
UKube-1 29 Jul 22:27:50 22:32:07 67° 74° (ENE) 22:36:26 .
Oscar 11 29 Jul 22:28:06 22:31:33 22° 267° (W) 22:34:56 145.826/435.025
M-CUBED/EXP-1 PRIME 29 Jul 22:34:19 22:39:10 83° 109° (ESE) 22:43:56 437.505
UNISAT 6 29 Jul 22:34:54 22:38:46 25° 93° (E) 22:42:41 437.425
CUBEBUG 1 29 Jul 22:39:04 22:42:55 32° 69° (ENE) 22:46:48 437.445
RS-15 29 Jul 22:47:27 22:58:25 85° 305° (NW) 23:09:51 29.354- 29.394
DX 1 29 Jul 22:51:39 22:55:58 62° 259° (WSW) 23:00:16 434.975-435.025
VELOX 1 29 Jul 22:55:26 22:59:51 83° 76° (ENE) 23:04:17 145.980
Cosmos 2491 29 Jul 22:55:38 23:03:38 40° 70° (ENE) 23:11:42 435.465 / 435.565
ESTCUBE 1 29 Jul 22:56:05 23:00:32 59° 74° (ENE) 23:05:01 437.505/2401.250
HUMSAT D 29 Jul 22:56:16 23:00:08 39° 263° (W) 23:04:05 437.325/437.525
POLYITAN 1 29 Jul 23:02:55 23:05:50 18° 91° (E) 23:08:54 437.675
PHONESAT 2.4 29 Jul 23:04:45 23:08:06 45° 173° (S) 23:11:28 2401.200-2431.200
AUBIESAT-1 29 Jul 23:06:35 23:11:16 56° 292° (WNW) 23:15:51 437.475
AIST 1 29 Jul 23:08:19 23:12:20 39° 76° (ENE) 23:16:21
ISS 29 Jul 23:13:18 23:16:30 56° 332° (NNW) 23:19:44 145.825
BEESAT 3 29 Jul 23:15:46 23:17:33 13° 111° (ESE) 23:19:31 437.485
TIGRISAT 29 Jul 23:18:53 23:23:32 68° 101° (ESE) 23:28:14 435.000
ANTELSAT 29 Jul 23:19:27 23:24:08 71° 102° (ESE) 23:28:51 437.575/2403.000
POPSAT HIP 1 29 Jul 23:20:37 23:24:14 27° 95° (E) 23:27:55 437.405
YUBILEINY 29 Jul 23:22:07 23:28:08 22° 80° (E) 23:34:32 435.215
SPROUT 29 Jul 23:25:46 23:29:28 30° 69° (ENE) 23:33:14 437.525
50 SAT 29 Jul 23:25:54 23:29:29 35° 263° (W) 23:33:06 437.505
QB50P2 29 Jul 23:27:24 23:31:16 33° 96° (E) 23:35:09 145.880/145.840
VERMONT LUNAR 29 Jul 23:35:30 23:38:15 27° 197° (SSW) 23:40:58 437.305
BUGSAT 1 29 Jul 23:39:22 23:42:47 26° 95° (E) 23:46:16 437.445
TISAT 1 29 Jul 23:48:19 23:52:03 32° 70° (ENE) 23:55:49 437.305
AISAT 29 Jul 23:53:01 23:56:39 24° 266° (W) 00:00:14 437.250
DUCHIFAT 1 29 Jul 23:54:53 23:59:05 63° 100° (E) 00:03:19 145.980
QB50P1 29 Jul 23:56:01 00:00:16 68° 101° (E) 00:04:30 145.935-145.965
NANOSAT C BR1 29 Jul 23:58:23 00:02:37 71° 102° (ESE) 00:06:51 145.865
UKube-1 30 Jul 00:07:05 00:08:47 12° 272° (W) 00:10:15 .
BEESAT 2 30 Jul 00:07:33 00:11:16 34° 117° (ESE) 00:15:03 435.950
M-CUBED/EXP-1 PRIME 30 Jul 00:10:36 00:13:21 15° 304° (NW) 00:15:55 437.505
UNISAT 6 30 Jul 00:11:19 00:15:36 36° 290° (WNW) 00:19:53 437.425
CUBEBUG 1 30 Jul 00:15:41 00:19:19 25° 266° (W) 00:22:52 437.445
ESTCUBE 1 30 Jul 00:35:12 00:37:51 15° 271° (W) 00:40:19 437.505/2401.250
POLYITAN 1 30 Jul 00:37:55 00:41:58 42° 289° (WNW) 00:46:00 437.675
PHONESAT 2.4 30 Jul 00:42:30 00:45:50 41° 190° (S) 00:49:08 2401.200-2431.200
BEESAT 30 Jul 00:46:18 00:50:16 27° 66° (ENE) 00:54:18 436.000
AIST 1 30 Jul 00:46:48 00:49:43 18° 273° (W) 00:52:30
ISS 30 Jul 00:50:49 00:53:26 22° 352° (N) 00:56:03 145.825
BEESAT 3 30 Jul 00:50:58 00:55:01 66° 306° (NW) 00:59:07 437.485
Cosmos 2491 30 Jul 00:52:28 01:00:44 49° 271° (W) 01:08:54 435.465 / 435.565
POPSAT HIP 1 30 Jul 00:56:25 01:00:05 28° 291° (WNW) 01:03:42 437.405
TIGRISAT 30 Jul 00:57:03 00:59:48 15° 297° (WNW) 01:02:24 435.000
ANTELSAT 30 Jul 00:57:46 01:00:24 15° 298° (WNW) 01:02:53 437.575/2403.000
SPROUT 30 Jul 01:01:58 01:05:33 25° 266° (W) 01:09:06 437.525
RS-15 30 Jul 01:02:51 01:12:44 34° 334° (NNW) 01:22:53 29.354- 29.394
QB50P2 30 Jul 01:03:35 01:07:00 23° 293° (WNW) 01:10:21 145.880/145.840
SWISSCUBE 30 Jul 01:05:47 01:10:18 44° 70° (ENE) 01:14:53 437.505
BUGSAT 1 30 Jul 01:14:46 01:18:13 27° 291° (WNW) 01:21:37 437.445
YUBILEINY 30 Jul 01:15:20 01:24:03 81° 280° (W) 01:32:52 435.215
AIST 2 30 Jul 01:22:13 01:26:18 48° 119° (ESE) 01:30:27 435.215
TISAT 1 30 Jul 01:24:32 01:27:53 22° 267° (W) 01:31:10 437.305
ITUPSAT 1 30 Jul 01:25:12 01:29:57 61° 73° (ENE) 01:34:43 437.325
DUCHIFAT 1 30 Jul 01:32:14 01:34:27 14° 297° (WNW) 01:36:30 145.980
QB50P1 30 Jul 01:33:38 01:35:39 13° 297° (WNW) 01:37:29 145.935-145.965
Cosmos 2504 30 Jul 01:35:21 01:38:59 15° 77° (ENE) 01:43:10 435.465 / 435.565
NANOSAT C BR1 30 Jul 01:36:05 01:37:57 12° 298° (WNW) 01:39:38 145.865
O/OREOS (USA 219) 30 Jul 01:37:33 01:41:26 31° 105° (ESE) 01:45:25 437.305
BEESAT 2 30 Jul 01:45:48 01:49:22 27° 315° (NW) 01:52:56 435.950
Oscar 19 30 Jul 01:53:45 01:58:41 45° 98° (E) 02:03:40 437.125/150
STARS 30 Jul 02:01:16 02:03:49 16° 63° (ENE) 02:06:32 437.465
